Hattiesburg, MS

7:47 AM CDT on August 26, 2016 (GMT -0500)
Chain Municipal

Weather History for KHBG - April, 2013

Change the Weather History Date:

Monday, April 29, 2013

  Actual Average Record
Temperature  
Mean Temperature 69 °F 69 °F  
Max Temperature 82 °F 82 °F 94 °F (1955)
Min Temperature 55 °F 57 °F 42 °F (1973)
Degree Days  
Heating Degree Days 0 1  
Month to date heating degree days 89 82  
Since 1 July heating degree days 1831 1977  
Cooling Degree Days 4 5  
Month to date cooling degree days 82 87  
Year to date cooling degree days 119 135  
Growing Degree Days 18 (Base 50)    
Moisture  
Dew Point 58 °F    
Average Humidity 70    
Maximum Humidity 100    
Minimum Humidity 39    
Precipitation  
Precipitation 0.00 in 0.12 in 2.00 in (1998)
Month to date precipitation 9.48 4.81  
Year to date precipitation 30.06 21.44  
Sea Level Pressure  
Sea Level Pressure 29.97 in    
Wind  
Wind Speed 1 mph (NE)    
Max Wind Speed 8 mph    
Max Gust Speed 15 mph    
Visibility 6 miles    
Events Fog    
T = Trace of Precipitation, MM = Missing Value Source: NWS Daily Summary

Daily Weather History Graph

Daily Weather History Graph

Search for Another Location

Airport or City:

Trip Planner

Search our weather history database for the weather conditions in past years. The results will help you decide how hot, cold, wet, or windy it might be!

Date:

Astronomy

Apr. 29, 2013 Rise Set
Actual Time 6:13 AM CDT 7:35 PM CDT
Civil Twilight 5:48 AM CDT 8:00 PM CDT
Nautical Twilight 5:17 AM CDT 8:31 PM CDT
Astronomical Twilight 4:45 AM CDT 9:03 PM CDT
Moon 11:54 PM CDT (4/29) 9:40 AM CDT (4/29)
Length of Visible Light 14h 12m
Length of Day
13h 21m
Waning Gibbous, 80% of the Moon is Illuminated
Apr 29
Waning Gibbous
May 2
Last Quarter
May 9
New
May 17
First Quarter
May 24
Full

Hourly Weather History & Observations

Time (CDT) Temp. Heat Index Dew Point Humidity Pressure Visibility Wind Dir Wind Speed Gust Speed Precip Events Conditions
12:53 AM 63.0 °F - 60.1 °F 90% 29.98 in 10.0 mi Calm Calm - 0.00 in   Scattered Clouds
1:53 AM 61.0 °F - 59.0 °F 93% 29.96 in 8.0 mi Calm Calm - N/A   Clear
2:14 AM 60.8 °F - 59.0 °F 94% 29.97 in 1.8 mi Calm Calm - N/A   Clear
2:29 AM 59.0 °F - 59.0 °F 100% 29.97 in 3.0 mi Calm Calm - N/A   Clear
2:53 AM 60.1 °F - 57.9 °F 93% 29.96 in 6.0 mi Calm Calm - N/A   Clear
3:05 AM 59.0 °F - 57.2 °F 94% 29.97 in 1.8 mi Calm Calm - N/A   Clear
3:08 AM 59.0 °F - 57.2 °F 94% 29.97 in 1.0 mi Calm Calm - N/A   Mist
3:15 AM 57.2 °F - 57.2 °F 100% 29.96 in 0.5 mi Calm Calm - N/A Fog Fog
3:47 AM 55.4 °F - 55.4 °F 100% 29.96 in 1.2 mi Calm Calm - N/A   Partly Cloudy
3:53 AM 57.0 °F - 55.9 °F 96% 29.96 in 3.0 mi Calm Calm - N/A   Partly Cloudy
4:10 AM 57.2 °F - 55.4 °F 94% 29.96 in 1.5 mi Calm Calm - N/A   Partly Cloudy
4:14 AM 57.2 °F - 55.4 °F 94% 29.96 in 0.8 mi Calm Calm - N/A   Mist
4:35 AM 55.4 °F - 55.4 °F 100% 29.96 in 1.0 mi Calm Calm - N/A   Mist
4:42 AM 55.4 °F - 55.4 °F 100% 29.96 in 0.5 mi Calm Calm - N/A Fog Fog
4:53 AM 55.9 °F - 55.0 °F 97% 29.96 in 0.8 mi Calm Calm - N/A   Mist
5:31 AM 55.4 °F - 55.4 °F 100% 29.97 in 0.2 mi Calm Calm - N/A Fog Fog
5:45 AM 55.4 °F - 55.4 °F 100% 29.97 in 0.8 mi Calm Calm - N/A   Mist
5:53 AM 55.9 °F - 55.0 °F 97% 29.97 in 1.0 mi Calm Calm - N/A   Mist
6:15 AM 55.4 °F - 55.4 °F 100% 29.98 in 0.2 mi Calm Calm - N/A Fog Fog
6:50 AM 55.4 °F - 55.4 °F 100% 29.99 in 1.0 mi Calm Calm - 0.01 in   Mist
6:53 AM 55.9 °F - 55.9 °F 100% 29.99 in 2.0 mi Calm Calm - 0.01 in   Mostly Cloudy
6:58 AM 55.4 °F - 55.4 °F 100% 30.00 in 7.0 mi Calm Calm - N/A   Scattered Clouds
7:53 AM 60.1 °F - 59.0 °F 96% 30.01 in 10.0 mi Calm Calm - N/A   Mostly Cloudy
8:02 AM 60.8 °F - 59.0 °F 94% 30.01 in 8.0 mi Calm Calm - N/A   Mostly Cloudy
8:17 AM 60.8 °F - 59.0 °F 94% 30.02 in 1.8 mi Calm Calm - N/A   Overcast
8:35 AM 60.8 °F - 60.8 °F 100% 30.02 in 3.0 mi Calm Calm - N/A   Overcast
8:53 AM 63.0 °F - 60.1 °F 90% 30.02 in 10.0 mi NE 3.5 mph - N/A   Overcast
9:20 AM 64.4 °F - 62.6 °F 94% 30.02 in 10.0 mi Variable 3.5 mph - N/A   Mostly Cloudy
9:53 AM 66.9 °F - 61.0 °F 81% 30.02 in 10.0 mi North 3.5 mph - N/A   Scattered Clouds
10:53 AM 70.0 °F - 62.1 °F 76% 30.02 in 10.0 mi NNE 4.6 mph - N/A   Clear
11:53 AM 73.9 °F - 62.1 °F 66% 30.00 in 10.0 mi NNE 5.8 mph - N/A   Clear
12:53 PM 77.0 °F - 59.0 °F 54% 29.99 in 10.0 mi ENE 3.5 mph - N/A   Clear
1:53 PM 79.0 °F - 57.0 °F 47% 29.97 in 10.0 mi Calm Calm - N/A   Clear
2:53 PM 78.1 °F - 54.0 °F 43% 29.95 in 10.0 mi WNW 3.5 mph - N/A   Scattered Clouds
3:53 PM 80.1 °F 79.9 °F 53.1 °F 39% 29.92 in 10.0 mi East 4.6 mph - N/A   Clear
4:53 PM 80.1 °F 80.0 °F 54.0 °F 40% 29.91 in 10.0 mi Calm Calm - N/A   Clear
5:53 PM 80.1 °F 80.0 °F 54.0 °F 40% 29.91 in 10.0 mi ENE 3.5 mph - N/A   Partly Cloudy
6:53 PM 73.9 °F - 62.1 °F 66% 29.90 in 10.0 mi Calm Calm - N/A   Clear
7:53 PM 70.0 °F - 63.0 °F 78% 29.90 in 10.0 mi Calm Calm - N/A   Clear
8:53 PM 66.9 °F - 62.1 °F 84% 29.91 in 10.0 mi Calm Calm - N/A   Clear
9:53 PM 66.0 °F - 60.1 °F 81% 29.93 in 10.0 mi Calm Calm - N/A   Clear
10:53 PM 63.0 °F - 60.1 °F 90% 29.94 in 10.0 mi Calm Calm - N/A   Clear
11:53 PM 63.0 °F - 60.1 °F 90% 29.94 in 10.0 mi Calm Calm - N/A   Clear